Location: Unspecified
(0.0000°N, 0.0000°E)
Time: 11:12:29
(UTC+00:00)

Explorer 11/Cluster Stage 4 - Pass Details

Date: 10 October 2020
Orbit: 467 x 1258 km, 28.8° (Epoch: 28 October)

Event Time Altitude Azimuth Distance (km) Brightness Sun altitude
Rises 02:31:25 0° 314° (NW) 3,115 - -48.4°
Reaches altitude 10° 02:33:45 10° 322° (NW) 2,313 - -47.9°
Maximum altitude 02:39:02 43° 33° (NNE) 1,241 - -46.6°
Exits shadow 02:43:11 21° 93° (E) 2,094 9.1 -45.5°
Drops below altitude 10° 02:45:34 10° 102° (ESE) 2,863 10.0 -45.0°
Sets 02:48:43 0° 108° (ESE) 3,936 10.9 -44.2°
